METEOR 2-11 DEB, 60003

Orbit data source: Space-Track

METEOR 2-11 DEB, 60003 is space debris in LEO originally from a launch on Thu, 05 Jul 1984 UTC launched from the Plesetsk Missile And Space Complex (PKMTR). Debris objects in space refer to the collection of defunct objects orbiting the Earth. Examples of debris include non-operational satellites, rocket bodies, and fragments generated from explosions, collisions, or faulty payload assembly.

Loading next visibility...
Identifier
60003, 1984-072Y
Orbit
LEO
Country
Flag of CISCIS
Related business
Manufacturer
Unknown
Mission
Spacecraft
Bus & Motor
Unknown
Mass
Unknown
Launch date (UTC)
1984-07-05 (42 years ago)
Launch vehicle
Unknown
Launch site
Plesetsk Missile And Space Complex (PKMTR)
Object type
Payload
Rocket body
Debris
Shape & HBR
Unknown shape, 0.1 m
Radar Cross Section
Small (<0.1 m²)

Expand to show TLE details & history
Last TLE update: 2 weeks ago

TLE from 2 weeks ago
0 METEOR 2-11 DEB
1 60003U 84072Y   26194.73067143  .00001206  00000-0  84562-3 0  9990
2 60003  82.5153 353.2925 0017373 268.9075  91.0102 13.97515413470038
Epoch: 2026-07-13T17:32Z
TLE epoch observation values (Epoch: 2026-07-13T17:32:10.011Z)
Latitude
-0.00004°
Longitude
158.6398°
Altitude
905.576 km
Speed
7.399 km/s
True Right ascension
23h 33m 10s
True Declination
0° 00' 00"
Sunlit
Object was in daylight at epoch
Visualization orbit readout
Latitude
Unknown
Longitude
Unknown
Altitude
Unknown
Speed
Unknown
Apparent Right ascension
Unknown
Apparent Declination
Unknown
Sunlit
N/A
Visualization observer readout
Local Sidereal Time
06:24:30
Azimuth
Unknown
Elevation
Unknown
Doppler factor
Unknown
Orbital elements
Apogee altitude
912.19 km
Perigee altitude
886.903 km
Semi-major axis
7,277.683 km
Eccentricity
0.00174
Inclination
82.5153°
RAAN
353.2925°
Arg. of periapsis
268.9075°
True anomaly
91.20924°
Mean anomaly
91.0102°
Eccentric anomaly
91.10972°
Mean motion
3.49586 °/min
Orbital period
102.98 mins
BSTAR
0.00084562
Loading maneuver chart data...
Computing Atmospheric mass density...
Loading historical data...
Loading historical data...
Loading historical data...
Loading historical data...
Loading historical data...
Loading historical data...
Loading historical data...

Documentation

Showing up to 5 results
|